This demonstration page uses our WeatherBlox Daily Observations layout. Learn more.

Left ArrowRight Arrow

Hourly Observations for November 8, 2015

Temp ( °F °C ) Dew Point ( °F °C ) Humidity (%) Winds ( mph kmh ) Pressure ( in mb ) Visibility ( mi km ) Precip ( " mm )
12:53 am 00:53 Mostly Cloudy 49 9.4 33 0.6 55 55 ENE 8 13 30.26 1025 10 16 0.00 0.00
1:53 am 01:53 Partly Cloudy 49 9.4 34 1.1 56 56 NE 8 13 30.26 1025 10 16 0.00 0.00
2:53 am 02:53 Mostly Cloudy 45 7.2 35 1.7 68 68 N 6 9 30.26 1025 10 16 0.00 0.00
3:08 am 03:08 Cloudy 46 8 36 2 66 66 N 6 9 30.30 1026 10 16 0.00 0.00
3:51 am 03:51 Mostly Cloudy 46 8 36 2 66 66 N 5 7 30.30 1026 10 16 0.00 0.00
3:53 am 03:53 Mostly Cloudy 47 8.3 35 1.7 63 63 N 5 7 30.25 1024 10 16 0.00 0.00
4:53 am 04:53 Cloudy 47 8.3 36 2.2 66 66 N 3 6 30.24 1024 10 16 0.00 0.00
5:07 am 05:07 Cloudy 47 8.3 37 2.8 69 69 N 3 6 30.30 1026 10 16 0.00 0.00
5:53 am 05:53 Cloudy 48 8.9 37 2.8 66 66 ENE 3 6 30.24 1024 10 16 0.00 0.00
6:53 am 06:53 Cloudy 49 9.4 38 3.3 66 66 E 9 15 30.25 1024 10 16 0.00 0.00
7:53 am 07:53 Cloudy 47 8.3 38 3.3 71 71 ESE 6 9 30.26 1025 10 16 0.00 0.00
8:53 am 08:53 Cloudy 50 10 39 3.9 66 66 ESE 8 13 30.27 1025 10 16 0.00 0.00
9:53 am 09:53 Cloudy 52 11.1 39 3.9 61 61 ESE 9 15 30.27 1025 10 16 0.00 0.00
10:53 am 10:53 Cloudy 55 12.8 37 2.8 51 51 ESE 8 13 30.26 1025 10 16 0.00 0.00
11:53 am 11:53 Cloudy 58 14.4 38 3.3 48 48 SE 9 15 30.23 1024 10 16 0.00 0.00
12:53 pm 12:53 Cloudy 59 15 34 1.1 39 39 ESE 8 13 30.19 1022 10 16 0.00 0.00
1:53 pm 13:53 Cloudy 60 15.6 35 1.7 39 39 SE 9 15 30.15 1021 10 16 0.00 0.00
2:53 pm 14:53 Mostly Sunny 62 16.7 36 2.2 38 38 S 10 17 30.11 1020 10 16 0.00 0.00
3:53 pm 15:53 Partly Cloudy 62 16.7 35 1.7 37 37 S 8 13 30.09 1019 10 16 0.00 0.00
4:53 pm 16:53 Mostly Cloudy 61 16.1 36 2.2 39 39 S 9 15 30.08 1019 10 16 0.00 0.00
5:53 pm 17:53 Mostly Cloudy 58 14.4 37 2.8 46 46 SSE 8 13 30.08 1019 10 16 0.00 0.00
6:53 pm 18:53 Cloudy 56 13.3 38 3.3 51 51 SSE 9 15 30.08 1019 10 16 0.00 0.00
7:53 pm 19:53 Mostly Cloudy 53 11.7 39 3.9 59 59 SSE 8 13 30.11 1020 10 16 0.00 0.00
8:53 pm 20:53 Cloudy 53 11.7 39 3.9 59 59 SE 7 11 30.10 1019 10 16 0.00 0.00
9:53 pm 21:53 Cloudy 54 12.2 40 4.4 59 59 SE 8 13 30.09 1019 10 16 0.00 0.00
10:53 pm 22:53 Clear 50 10 40 4.4 68 68 SE 7 11 30.09 1019 10 16 0.00 0.00
11:53 pm 23:53 Clear 50 10 40 4.4 68 68 ESE 6 9 30.07 1018 10 16 0.00 0.00

Powered by AerisWeather